Time,TemperatureF,DewpointF,PressureIn,WindDirection,WindDirectionDegrees,WindSpeedMPH,WindSpeedGustMPH,Humidity,HourlyPrecipIn,Conditions,Clouds,dailyrainin,SoftwareType,DateUTC
2013-11-10 00:00:00,77.0,71.8,30.03,NE,52,4.0,12.0,84,0.00,,,0.00,Wunderground v.1.15,2013-11-10 05:00:00,
2013-11-10 00:02:00,77.0,71.8,30.03,ENE,68,4.0,12.0,84,0.00,,,0.00,Wunderground v.1.15,2013-11-10 05:02:00,
2013-11-10 00:04:00,77.0,71.8,30.03,NE,51,4.0,12.0,84,0.00,,,0.00,Wunderground v.1.15,2013-11-10 05:04:00,
2013-11-10 00:08:00,77.0,71.8,30.02,North,6,4.0,12.0,84,0.00,,,0.00,Wunderground v.1.15,2013-11-10 05:08:00,
2013-11-10 00:10:00,77.0,72.1,30.02,ENE,59,4.0,12.0,85,0.00,,,0.00,Wunderground v.1.15,2013-11-10 05:10:00,
2013-11-10 00:12:00,77.0,71.8,30.02,ENE,60,4.0,12.0,84,0.00,,,0.00,Wunderground v.1.15,2013-11-10 05:12:00,
2013-11-10 00:18:00,77.1,71.9,30.02,ENE,69,4.0,12.0,84,0.00,,,0.00,Wunderground v.1.15,2013-11-10 05:18:00,
2013-11-10 00:24:00,77.0,71.8,30.02,NE,53,4.0,12.0,84,0.00,,,0.00,Wunderground v.1.15,2013-11-10 05:24:00,
2013-11-10 00:30:00,77.0,72.1,30.02,ENE,68,4.0,12.0,85,0.00,,,0.00,Wunderground v.1.15,2013-11-10 05:30:00,
2013-11-10 00:34:00,77.0,72.1,30.02,ENE,75,4.0,12.0,85,0.00,,,0.00,Wunderground v.1.15,2013-11-10 05:34:00,
2013-11-10 00:40:00,76.7,72.2,30.02,ENE,57,5.0,5.0,86,0.00,,,0.00,Wunderground v.1.15,2013-11-10 05:40:00,
2013-11-10 00:46:00,75.9,72.4,30.02,ENE,60,5.0,12.0,89,0.00,,,0.01,Wunderground v.1.15,2013-11-10 05:46:00,
2013-11-10 00:52:00,75.5,72.4,30.02,NE,39,3.0,12.0,90,0.00,,,0.01,Wunderground v.1.15,2013-11-10 05:52:00,
2013-11-10 00:58:00,75.3,72.5,30.02,ENE,68,3.0,12.0,91,0.00,,,0.01,Wunderground v.1.15,2013-11-10 05:58:00,
2013-11-10 01:04:00,75.3,72.5,30.01,ENE,60,3.0,12.0,91,0.00,,,0.01,Wunderground v.1.15,2013-11-10 06:04:00,
2013-11-10 01:10:00,75.1,72.3,30.01,NE,54,3.0,12.0,91,0.00,,,0.01,Wunderground v.1.15,2013-11-10 06:10:00,
2013-11-10 01:16:00,75.2,72.4,30.01,NNE,32,3.0,12.0,91,0.00,,,0.01,Wunderground v.1.15,2013-11-10 06:16:00,
2013-11-10 01:22:00,75.1,72.3,30.01,NE,54,3.0,12.0,91,0.00,,,0.01,Wunderground v.1.15,2013-11-10 06:22:00,
2013-11-10 01:28:00,75.1,72.6,30.01,NE,39,2.0,12.0,92,0.00,,,0.01,Wunderground v.1.15,2013-11-10 06:28:00,
2013-11-10 01:34:00,75.0,72.5,30.01,NE,53,2.0,12.0,92,0.00,,,0.01,Wunderground v.1.15,2013-11-10 06:34:00,
2013-11-10 01:40:00,75.0,72.5,30.00,NE,45,2.0,12.0,92,0.00,,,0.01,Wunderground v.1.15,2013-11-10 06:40:00,
2013-11-10 01:46:00,74.9,72.4,30.00,NE,48,2.0,12.0,92,0.00,,,0.01,Wunderground v.1.15,2013-11-10 06:46:00,
2013-11-10 01:52:00,74.9,72.4,30.00,NE,56,2.0,12.0,92,0.00,,,0.01,Wunderground v.1.15,2013-11-10 06:52:00,
2013-11-10 01:58:00,75.1,72.3,30.00,NE,46,2.0,12.0,91,0.00,,,0.01,Wunderground v.1.15,2013-11-10 06:58:00,
2013-11-10 02:04:00,75.6,72.1,30.00,NE,48,3.0,12.0,89,0.00,,,0.01,Wunderground v.1.15,2013-11-10 07:04:00,
2013-11-10 02:10:00,76.0,72.2,30.00,NE,50,4.0,4.0,88,0.00,,,0.01,Wunderground v.1.15,2013-11-10 07:10:00,
2013-11-10 02:16:00,76.3,72.1,30.00,East,84,4.0,12.0,87,0.00,,,0.01,Wunderground v.1.15,2013-11-10 07:16:00,
2013-11-10 02:22:00,76.5,72.3,30.00,East,90,5.0,12.0,87,0.00,,,0.01,Wunderground v.1.15,2013-11-10 07:22:00,
2013-11-10 02:28:00,76.6,72.4,30.00,ENE,61,4.0,12.0,87,0.00,,,0.01,Wunderground v.1.15,2013-11-10 07:28:00,
2013-11-10 02:34:00,76.7,72.5,30.00,NE,46,3.0,12.0,87,0.00,,,0.01,Wunderground v.1.15,2013-11-10 07:34:00,
2013-11-10 02:40:00,76.5,72.3,30.00,ENE,75,3.0,12.0,87,0.00,,,0.01,Wunderground v.1.15,2013-11-10 07:40:00,
2013-11-10 02:46:00,76.2,72.4,30.00,East,88,2.0,12.0,88,0.00,,,0.01,Wunderground v.1.15,2013-11-10 07:46:00,
2013-11-10 02:52:00,76.0,72.5,30.00,East,85,3.0,12.0,89,0.00,,,0.02,Wunderground v.1.15,2013-11-10 07:52:00,
2013-11-10 02:58:00,75.8,72.7,30.00,East,79,4.0,12.0,90,0.00,,,0.02,Wunderground v.1.15,2013-11-10 07:58:00,
2013-11-10 03:04:00,75.8,72.7,30.00,NE,53,3.0,12.0,90,0.00,,,0.02,Wunderground v.1.15,2013-11-10 08:04:00,
2013-11-10 03:10:00,75.8,72.3,30.00,NE,45,3.0,3.0,89,0.00,,,0.02,Wunderground v.1.15,2013-11-10 08:10:00,
2013-11-10 03:16:00,76.0,72.5,30.00,ENE,57,3.0,12.0,89,0.00,,,0.02,Wunderground v.1.15,2013-11-10 08:16:00,
2013-11-10 03:22:00,76.1,72.3,30.00,East,89,4.0,12.0,88,0.00,,,0.02,Wunderground v.1.15,2013-11-10 08:22:00,
2013-11-10 03:28:00,76.1,72.3,30.00,NE,52,3.0,12.0,88,0.00,,,0.02,Wunderground v.1.15,2013-11-10 08:28:00,
2013-11-10 03:34:00,76.3,72.5,30.00,NNE,22,4.0,12.0,88,0.00,,,0.02,Wunderground v.1.15,2013-11-10 08:34:00,
2013-11-10 03:40:00,76.4,72.2,29.99,ENE,70,4.0,12.0,87,0.00,,,0.02,Wunderground v.1.15,2013-11-10 08:40:00,
2013-11-10 03:46:00,76.4,72.6,29.99,NE,39,4.0,12.0,88,0.00,,,0.02,Wunderground v.1.15,2013-11-10 08:46:00,
2013-11-10 03:52:00,76.5,72.3,29.99,NNE,30,4.0,12.0,87,0.00,,,0.02,Wunderground v.1.15,2013-11-10 08:52:00,
2013-11-10 03:58:00,76.6,72.4,29.99,East,82,4.0,12.0,87,0.00,,,0.02,Wunderground v.1.15,2013-11-10 08:58:00,
2013-11-10 04:04:00,76.8,72.3,29.99,ENE,68,5.0,6.0,86,0.00,,,0.02,Wunderground v.1.15,2013-11-10 09:04:00,
2013-11-10 04:10:00,76.7,72.2,29.99,ENE,61,4.0,5.0,86,0.00,,,0.02,Wunderground v.1.15,2013-11-10 09:10:00,
2013-11-10 04:16:00,76.8,72.3,29.99,NE,53,3.0,5.0,86,0.00,,,0.02,Wunderground v.1.15,2013-11-10 09:16:00,
2013-11-10 04:22:00,76.8,72.3,29.99,NE,43,3.0,3.0,86,0.00,,,0.02,Wunderground v.1.15,2013-11-10 09:22:00,
2013-11-10 04:28:00,76.9,72.0,29.99,ENE,59,4.0,8.0,85,0.00,,,0.02,Wunderground v.1.15,2013-11-10 09:28:00,
2013-11-10 04:34:00,76.9,72.0,30.00,NE,56,4.0,5.0,85,0.00,,,0.02,Wunderground v.1.15,2013-11-10 09:34:00,
2013-11-10 04:40:00,76.6,72.1,30.00,East,90,5.0,5.0,86,0.00,,,0.02,Wunderground v.1.15,2013-11-10 09:40:00,
2013-11-10 04:46:00,76.3,72.1,29.99,ENE,58,5.0,6.0,87,0.00,,,0.02,Wunderground v.1.15,2013-11-10 09:46:00,
2013-11-10 04:52:00,76.3,72.1,30.00,NNE,28,4.0,4.0,87,0.00,,,0.02,Wunderground v.1.15,2013-11-10 09:52:00,
2013-11-10 04:58:00,76.3,72.1,30.00,ENE,74,4.0,5.0,87,0.00,,,0.02,Wunderground v.1.15,2013-11-10 09:58:00,
2013-11-10 05:04:00,76.0,72.2,30.00,East,89,5.0,11.0,88,0.00,,,0.02,Wunderground v.1.15,2013-11-10 10:04:00,
2013-11-10 05:10:00,75.6,72.1,30.00,East,90,5.0,5.0,89,0.00,,,0.02,Wunderground v.1.15,2013-11-10 10:10:00,
2013-11-10 05:16:00,75.5,72.0,30.00,ENE,68,4.0,11.0,89,0.00,,,0.02,Wunderground v.1.15,2013-11-10 10:16:00,
2013-11-10 05:22:00,75.5,72.0,30.01,NE,46,3.0,11.0,89,0.00,,,0.02,Wunderground v.1.15,2013-11-10 10:22:00,
2013-11-10 05:28:00,75.8,72.0,30.01,ENE,60,3.0,11.0,88,0.00,,,0.02,Wunderground v.1.15,2013-11-10 10:28:00,
2013-11-10 05:34:00,76.1,71.9,30.01,ENE,60,4.0,11.0,87,0.00,,,0.02,Wunderground v.1.15,2013-11-10 10:34:00,
2013-11-10 05:38:00,76.1,71.9,30.01,NE,51,4.0,11.0,87,0.00,,,0.02,Wunderground v.1.15,2013-11-10 10:38:00,
2013-11-10 05:44:00,76.3,71.5,30.01,ENE,68,3.0,11.0,85,0.00,,,0.02,Wunderground v.1.15,2013-11-10 10:44:00,
2013-11-10 05:50:00,76.4,71.6,30.01,ENE,74,4.0,4.0,85,0.00,,,0.02,Wunderground v.1.15,2013-11-10 10:50:00,
2013-11-10 05:56:00,76.5,71.7,30.01,East,80,4.0,11.0,85,0.00,,,0.02,Wunderground v.1.15,2013-11-10 10:56:00,
2013-11-10 06:02:00,76.6,71.4,30.01,East,79,5.0,11.0,84,0.00,,,0.02,Wunderground v.1.15,2013-11-10 11:02:00,
2013-11-10 06:08:00,76.6,71.4,30.01,NE,49,5.0,11.0,84,0.00,,,0.02,Wunderground v.1.15,2013-11-10 11:08:00,
2013-11-10 06:14:00,76.5,71.3,30.02,ENE,63,4.0,11.0,84,0.00,,,0.02,Wunderground v.1.15,2013-11-10 11:14:00,
2013-11-10 06:20:00,76.5,70.9,30.02,ENE,66,4.0,4.0,83,0.00,,,0.02,Wunderground v.1.15,2013-11-10 11:20:00,
2013-11-10 06:26:00,76.5,70.9,30.02,NE,37,4.0,11.0,83,0.00,,,0.02,Wunderground v.1.15,2013-11-10 11:26:00,
2013-11-10 06:32:00,76.5,70.6,30.02,ENE,70,4.0,11.0,82,0.00,,,0.02,Wunderground v.1.15,2013-11-10 11:32:00,
2013-11-10 06:38:00,76.5,70.2,30.02,NE,46,4.0,11.0,81,0.00,,,0.02,Wunderground v.1.15,2013-11-10 11:38:00,
2013-11-10 06:44:00,76.4,70.1,30.03,NE,55,3.0,11.0,81,0.00,,,0.02,Wunderground v.1.15,2013-11-10 11:44:00,
2013-11-10 06:50:00,76.4,70.1,30.03,ESE,110,3.0,11.0,81,0.00,,,0.02,Wunderground v.1.15,2013-11-10 11:50:00,
2013-11-10 06:56:00,76.3,70.0,30.03,NE,49,2.0,11.0,81,0.00,,,0.02,Wunderground v.1.15,2013-11-10 11:56:00,
2013-11-10 07:02:00,76.2,69.9,30.04,East,80,2.0,11.0,81,0.00,,,0.02,Wunderground v.1.15,2013-11-10 12:02:00,
2013-11-10 07:08:00,76.2,69.9,30.03,ENE,58,2.0,11.0,81,0.00,,,0.02,Wunderground v.1.15,2013-11-10 12:08:00,
2013-11-10 07:14:00,76.3,70.0,30.04,ENE,64,3.0,11.0,81,0.00,,,0.02,Wunderground v.1.15,2013-11-10 12:14:00,
2013-11-10 07:20:00,76.4,70.1,30.04,NE,53,3.0,3.0,81,0.00,,,0.02,Wunderground v.1.15,2013-11-10 12:20:00,
2013-11-10 07:26:00,76.5,70.2,30.04,ENE,69,2.0,11.0,81,0.00,,,0.02,Wunderground v.1.15,2013-11-10 12:26:00,
2013-11-10 07:32:00,76.6,70.3,30.04,NE,51,2.0,11.0,81,0.00,,,0.02,Wunderground v.1.15,2013-11-10 12:32:00,
2013-11-10 07:38:00,76.7,70.4,30.04,NE,51,2.0,11.0,81,0.00,,,0.02,Wunderground v.1.15,2013-11-10 12:38:00,
2013-11-10 07:44:00,76.7,70.4,30.04,NE,49,2.0,11.0,81,0.00,,,0.02,Wunderground v.1.15,2013-11-10 12:44:00,
2013-11-10 07:50:00,77.3,71.0,30.04,NE,54,3.0,11.0,81,0.00,,,0.02,Wunderground v.1.15,2013-11-10 12:50:00,
2013-11-10 07:56:00,77.7,71.4,30.05,ENE,62,3.0,11.0,81,0.00,,,0.02,Wunderground v.1.15,2013-11-10 12:56:00,
2013-11-10 08:02:00,77.7,71.4,30.05,ENE,60,3.0,11.0,81,0.00,,,0.02,Wunderground v.1.15,2013-11-10 13:02:00,
2013-11-10 08:08:00,77.7,71.4,30.05,ENE,76,3.0,11.0,81,0.00,,,0.02,Wunderground v.1.15,2013-11-10 13:08:00,
2013-11-10 08:14:00,77.7,71.4,30.05,ENE,76,4.0,11.0,81,0.00,,,0.02,Wunderground v.1.15,2013-11-10 13:14:00,
2013-11-10 08:20:00,77.9,71.2,30.05,NE,49,5.0,11.0,80,0.00,,,0.02,Wunderground v.1.15,2013-11-10 13:20:00,
2013-11-10 08:26:00,78.2,71.5,30.05,ENE,63,6.0,11.0,80,0.00,,,0.02,Wunderground v.1.15,2013-11-10 13:26:00,
2013-11-10 08:32:00,78.5,71.4,30.05,East,89,5.0,11.0,79,0.00,,,0.02,Wunderground v.1.15,2013-11-10 13:32:00,
2013-11-10 08:38:00,78.7,71.6,30.05,ENE,63,5.0,11.0,79,0.00,,,0.02,Wunderground v.1.15,2013-11-10 13:38:00,
2013-11-10 08:44:00,78.9,71.8,30.05,East,93,5.0,11.0,79,0.00,,,0.02,Wunderground v.1.15,2013-11-10 13:44:00,
2013-11-10 08:50:00,79.1,71.6,30.05,ENE,68,4.0,11.0,78,0.00,,,0.02,Wunderground v.1.15,2013-11-10 13:50:00,
2013-11-10 08:56:00,79.1,72.0,30.06,ENE,58,5.0,11.0,79,0.00,,,0.02,Wunderground v.1.15,2013-11-10 13:56:00,
2013-11-10 09:02:00,79.2,72.1,30.05,ENE,58,6.0,7.0,79,0.00,,,0.02,Wunderground v.1.15,2013-11-10 14:02:00,
2013-11-10 09:08:00,79.2,71.4,30.05,SE,138,7.0,11.0,77,0.00,,,0.02,Wunderground v.1.15,2013-11-10 14:08:00,
2013-11-10 09:14:00,79.2,71.4,30.05,NE,45,7.0,11.0,77,0.00,,,0.02,Wunderground v.1.15,2013-11-10 14:14:00,
2013-11-10 09:20:00,79.4,71.6,30.05,SSE,165,7.0,7.0,77,0.00,,,0.02,Wunderground v.1.15,2013-11-10 14:20:00,
2013-11-10 09:26:00,79.4,71.6,30.06,ENE,65,8.0,11.0,77,0.00,,,0.02,Wunderground v.1.15,2013-11-10 14:26:00,
2013-11-10 09:32:00,79.5,71.7,30.06,ESE,103,7.0,11.0,77,0.00,,,0.02,Wunderground v.1.15,2013-11-10 14:32:00,
2013-11-10 09:38:00,79.9,71.7,30.06,ENE,65,5.0,11.0,76,0.00,,,0.02,Wunderground v.1.15,2013-11-10 14:38:00,
2013-11-10 09:44:00,80.5,72.2,30.06,ESE,103,5.0,11.0,76,0.00,,,0.02,Wunderground v.1.15,2013-11-10 14:44:00,
2013-11-10 09:50:00,81.1,71.6,30.06,NNE,33,6.0,11.0,73,0.00,,,0.02,Wunderground v.1.15,2013-11-10 14:50:00,
2013-11-10 09:56:00,81.1,71.2,30.06,NE,51,7.0,11.0,72,0.00,,,0.02,Wunderground v.1.15,2013-11-10 14:56:00,
2013-11-10 10:02:00,81.2,71.3,30.06,East,80,6.0,11.0,72,0.00,,,0.02,Wunderground v.1.15,2013-11-10 15:02:00,
2013-11-10 10:08:00,81.2,71.3,30.06,East,87,6.0,11.0,72,0.00,,,0.02,Wunderground v.1.15,2013-11-10 15:08:00,
2013-11-10 10:14:00,81.5,72.0,30.06,ENE,64,6.0,11.0,73,0.00,,,0.02,Wunderground v.1.15,2013-11-10 15:14:00,
2013-11-10 10:20:00,81.5,71.6,30.05,NE,39,7.0,7.0,72,0.00,,,0.02,Wunderground v.1.15,2013-11-10 15:20:00,
2013-11-10 10:26:00,81.4,71.5,30.05,NE,56,7.0,11.0,72,0.00,,,0.02,Wunderground v.1.15,2013-11-10 15:26:00,
2013-11-10 10:32:00,81.2,71.3,30.05,NE,47,6.0,8.0,72,0.00,,,0.02,Wunderground v.1.15,2013-11-10 15:32:00,
2013-11-10 10:38:00,81.2,71.3,30.05,ENE,66,6.0,11.0,72,0.00,,,0.02,Wunderground v.1.15,2013-11-10 15:38:00,
2013-11-10 10:44:00,81.2,70.9,30.05,NE,52,6.0,11.0,71,0.00,,,0.02,Wunderground v.1.15,2013-11-10 15:44:00,
2013-11-10 10:50:00,81.3,71.0,30.05,ENE,58,6.0,6.0,71,0.00,,,0.02,Wunderground v.1.15,2013-11-10 15:50:00,
2013-11-10 10:56:00,81.5,70.8,30.05,ENE,68,6.0,11.0,70,0.00,,,0.02,Wunderground v.1.15,2013-11-10 15:56:00,
2013-11-10 11:02:00,81.2,70.9,30.04,ENE,60,6.0,11.0,71,0.00,,,0.02,Wunderground v.1.15,2013-11-10 16:02:00,
2013-11-10 11:08:00,81.1,70.4,30.04,ENE,63,7.0,11.0,70,0.00,,,0.02,Wunderground v.1.15,2013-11-10 16:08:00,
2013-11-10 11:14:00,81.4,70.7,30.04,ENE,66,6.0,11.0,70,0.00,,,0.02,Wunderground v.1.15,2013-11-10 16:14:00,
2013-11-10 11:20:00,81.5,70.8,30.04,NNE,30,6.0,11.0,70,0.00,,,0.02,Wunderground v.1.15,2013-11-10 16:20:00,
2013-11-10 11:26:00,81.4,70.2,30.03,ENE,70,7.0,14.0,69,0.00,,,0.02,Wunderground v.1.15,2013-11-10 16:26:00,
2013-11-10 11:32:00,81.5,70.8,30.04,NE,49,7.0,8.0,70,0.00,,,0.02,Wunderground v.1.15,2013-11-10 16:32:00,
2013-11-10 11:38:00,81.6,70.9,30.03,ENE,63,6.0,11.0,70,0.00,,,0.02,Wunderground v.1.15,2013-11-10 16:38:00,
2013-11-10 11:44:00,81.4,70.2,30.03,ENE,58,6.0,11.0,69,0.00,,,0.02,Wunderground v.1.15,2013-11-10 16:44:00,
2013-11-10 11:50:00,81.4,70.7,30.03,ENE,58,6.0,6.0,70,0.00,,,0.02,Wunderground v.1.15,2013-11-10 16:50:00,
2013-11-10 11:56:00,81.5,70.8,30.04,ENE,63,6.0,11.0,70,0.00,,,0.02,Wunderground v.1.15,2013-11-10 16:56:00,
2013-11-10 12:02:00,81.4,71.1,30.03,ENE,58,5.0,11.0,71,0.00,,,0.02,Wunderground v.1.15,2013-11-10 17:02:00,
2013-11-10 12:08:00,81.4,70.7,30.03,NE,41,5.0,11.0,70,0.00,,,0.02,Wunderground v.1.15,2013-11-10 17:08:00,
2013-11-10 12:14:00,81.6,70.9,30.03,NNE,20,5.0,11.0,70,0.00,,,0.02,Wunderground v.1.15,2013-11-10 17:14:00,
2013-11-10 12:20:00,82.3,70.2,30.03,East,86,5.0,11.0,67,0.00,,,0.02,Wunderground v.1.15,2013-11-10 17:20:00,
2013-11-10 12:26:00,82.2,70.6,30.02,NE,37,6.0,11.0,68,0.00,,,0.02,Wunderground v.1.15,2013-11-10 17:26:00,
2013-11-10 12:32:00,82.5,70.0,30.02,NE,43,5.0,6.0,66,0.00,,,0.02,Wunderground v.1.15,2013-11-10 17:32:00,
2013-11-10 12:38:00,82.6,70.5,30.01,NNE,26,4.0,11.0,67,0.00,,,0.02,Wunderground v.1.15,2013-11-10 17:38:00,
2013-11-10 12:44:00,82.7,69.7,30.01,ENE,66,4.0,11.0,65,0.00,,,0.02,Wunderground v.1.15,2013-11-10 17:44:00,
2013-11-10 12:50:00,82.4,69.0,30.01,ENE,61,5.0,11.0,64,0.00,,,0.02,Wunderground v.1.15,2013-11-10 17:50:00,
2013-11-10 12:56:00,82.2,68.3,30.01,NNE,32,6.0,11.0,63,0.00,,,0.02,Wunderground v.1.15,2013-11-10 17:56:00,
2013-11-10 13:02:00,82.3,68.4,30.01,NE,47,6.0,11.0,63,0.00,,,0.02,Wunderground v.1.15,2013-11-10 18:02:00,
2013-11-10 13:08:00,82.6,68.7,30.01,NE,38,6.0,11.0,63,0.00,,,0.02,Wunderground v.1.15,2013-11-10 18:08:00,
2013-11-10 13:14:00,82.8,68.9,30.01,NE,38,6.0,11.0,63,0.00,,,0.02,Wunderground v.1.15,2013-11-10 18:14:00,
2013-11-10 13:20:00,82.9,69.9,30.00,NE,56,5.0,11.0,65,0.00,,,0.02,Wunderground v.1.15,2013-11-10 18:20:00,
2013-11-10 13:26:00,82.7,70.2,30.00,East,82,6.0,11.0,66,0.00,,,0.02,Wunderground v.1.15,2013-11-10 18:26:00,
2013-11-10 13:32:00,82.7,70.6,30.00,ENE,67,6.0,11.0,67,0.00,,,0.02,Wunderground v.1.15,2013-11-10 18:32:00,
2013-11-10 13:38:00,82.7,71.1,30.00,NNE,27,5.0,11.0,68,0.00,,,0.02,Wunderground v.1.15,2013-11-10 18:38:00,
2013-11-10 13:44:00,82.7,70.6,30.00,NE,54,4.0,11.0,67,0.00,,,0.02,Wunderground v.1.15,2013-11-10 18:44:00,
2013-11-10 13:50:00,82.5,70.9,30.00,ENE,58,5.0,5.0,68,0.00,,,0.02,Wunderground v.1.15,2013-11-10 18:50:00,
2013-11-10 13:56:00,82.4,70.8,30.00,ENE,70,5.0,11.0,68,0.00,,,0.02,Wunderground v.1.15,2013-11-10 18:56:00,
2013-11-10 14:02:00,82.4,70.3,30.00,NE,48,5.0,11.0,67,0.00,,,0.02,Wunderground v.1.15,2013-11-10 19:02:00,
2013-11-10 14:08:00,82.4,70.3,29.99,NE,44,4.0,11.0,67,0.00,,,0.02,Wunderground v.1.15,2013-11-10 19:08:00,
2013-11-10 14:14:00,82.5,70.9,29.99,NE,49,4.0,11.0,68,0.00,,,0.02,Wunderground v.1.15,2013-11-10 19:14:00,
2013-11-10 14:20:00,82.2,70.6,29.99,ESE,106,6.0,11.0,68,0.00,,,0.02,Wunderground v.1.15,2013-11-10 19:20:00,
2013-11-10 14:26:00,82.2,70.1,29.99,NE,44,6.0,11.0,67,0.00,,,0.02,Wunderground v.1.15,2013-11-10 19:26:00,
2013-11-10 14:32:00,82.3,70.7,29.99,NE,52,6.0,10.0,68,0.00,,,0.02,Wunderground v.1.15,2013-11-10 19:32:00,
2013-11-10 14:38:00,82.2,70.1,29.98,NNE,26,6.0,11.0,67,0.00,,,0.02,Wunderground v.1.15,2013-11-10 19:38:00,
2013-11-10 14:44:00,82.3,70.2,29.99,ENE,66,6.0,11.0,67,0.00,,,0.02,Wunderground v.1.15,2013-11-10 19:44:00,
2013-11-10 14:50:00,82.4,70.8,29.98,NE,36,5.0,5.0,68,0.00,,,0.02,Wunderground v.1.15,2013-11-10 19:50:00,
2013-11-10 14:56:00,82.4,69.9,29.99,NE,52,5.0,11.0,66,0.00,,,0.02,Wunderground v.1.15,2013-11-10 19:56:00,
2013-11-10 15:02:00,82.2,70.1,29.98,East,84,7.0,11.0,67,0.00,,,0.02,Wunderground v.1.15,2013-11-10 20:02:00,
2013-11-10 15:08:00,82.8,71.2,29.98,NE,44,5.0,11.0,68,0.00,,,0.02,Wunderground v.1.15,2013-11-10 20:08:00,
2013-11-10 15:14:00,83.0,70.5,29.99,ENE,67,5.0,11.0,66,0.00,,,0.02,Wunderground v.1.15,2013-11-10 20:14:00,
2013-11-10 15:20:00,82.3,70.2,29.98,ENE,71,6.0,11.0,67,0.00,,,0.02,Wunderground v.1.15,2013-11-10 20:20:00,
2013-11-10 15:26:00,82.2,70.6,29.99,ENE,77,5.0,11.0,68,0.00,,,0.02,Wunderground v.1.15,2013-11-10 20:26:00,
2013-11-10 15:32:00,81.7,69.7,29.99,ENE,76,5.0,11.0,67,0.00,,,0.02,Wunderground v.1.15,2013-11-10 20:32:00,
2013-11-10 15:38:00,81.3,70.6,29.99,ENE,60,5.0,11.0,70,0.00,,,0.02,Wunderground v.1.15,2013-11-10 20:38:00,
2013-11-10 15:44:00,81.2,70.1,29.99,NE,49,6.0,11.0,69,0.00,,,0.02,Wunderground v.1.15,2013-11-10 20:44:00,
2013-11-10 15:50:00,81.0,70.7,29.99,ENE,69,6.0,11.0,71,0.00,,,0.02,Wunderground v.1.15,2013-11-10 20:50:00,
2013-11-10 15:56:00,81.0,70.7,30.00,NNW,345,5.0,11.0,71,0.00,,,0.02,Wunderground v.1.15,2013-11-10 20:56:00,
2013-11-10 16:02:00,80.8,70.5,30.00,NE,42,5.0,11.0,71,0.00,,,0.02,Wunderground v.1.15,2013-11-10 21:02:00,
2013-11-10 16:08:00,80.8,70.1,30.00,ENE,58,5.0,11.0,70,0.00,,,0.02,Wunderground v.1.15,2013-11-10 21:08:00,
2013-11-10 16:14:00,80.7,69.6,30.00,NE,39,4.0,11.0,69,0.00,,,0.02,Wunderground v.1.15,2013-11-10 21:14:00,
2013-11-10 16:20:00,80.5,69.8,30.00,NE,51,5.0,5.0,70,0.00,,,0.02,Wunderground v.1.15,2013-11-10 21:20:00,
2013-11-10 16:26:00,80.3,70.0,30.00,NE,56,6.0,11.0,71,0.00,,,0.02,Wunderground v.1.15,2013-11-10 21:26:00,
2013-11-10 16:32:00,80.3,70.0,30.00,North,11,5.0,7.0,71,0.00,,,0.02,Wunderground v.1.15,2013-11-10 21:32:00,
2013-11-10 16:38:00,80.1,69.8,30.00,ENE,66,5.0,11.0,71,0.00,,,0.02,Wunderground v.1.15,2013-11-10 21:38:00,
2013-11-10 16:44:00,80.1,69.8,29.99,ENE,74,5.0,11.0,71,0.00,,,0.02,Wunderground v.1.15,2013-11-10 21:44:00,
2013-11-10 16:50:00,80.0,70.2,29.99,NNE,32,6.0,6.0,72,0.00,,,0.02,Wunderground v.1.15,2013-11-10 21:50:00,
2013-11-10 16:56:00,80.1,70.3,29.99,East,96,5.0,11.0,72,0.00,,,0.02,Wunderground v.1.15,2013-11-10 21:56:00,
2013-11-10 17:02:00,79.9,70.1,29.99,ENE,66,5.0,11.0,72,0.00,,,0.02,Wunderground v.1.15,2013-11-10 22:02:00,
2013-11-10 17:08:00,79.5,70.1,30.00,ENE,70,4.0,11.0,73,0.00,,,0.02,Wunderground v.1.15,2013-11-10 22:08:00,
2013-11-10 17:14:00,79.3,69.9,29.99,NNE,19,5.0,11.0,73,0.00,,,0.02,Wunderground v.1.15,2013-11-10 22:14:00,
2013-11-10 17:20:00,79.0,69.6,29.99,NE,53,4.0,11.0,73,0.00,,,0.02,Wunderground v.1.15,2013-11-10 22:20:00,
2013-11-10 17:26:00,78.8,69.4,29.99,NNE,32,3.0,11.0,73,0.00,,,0.02,Wunderground v.1.15,2013-11-10 22:26:00,
2013-11-10 17:32:00,78.7,69.3,30.00,NE,46,4.0,11.0,73,0.00,,,0.02,Wunderground v.1.15,2013-11-10 22:32:00,
2013-11-10 17:38:00,78.6,69.2,30.00,ENE,57,4.0,11.0,73,0.00,,,0.02,Wunderground v.1.15,2013-11-10 22:38:00,
2013-11-10 17:44:00,78.5,69.1,30.00,NE,49,4.0,11.0,73,0.00,,,0.02,Wunderground v.1.15,2013-11-10 22:44:00,
2013-11-10 17:50:00,78.4,69.4,30.00,NE,41,4.0,11.0,74,0.00,,,0.02,Wunderground v.1.15,2013-11-10 22:50:00,
2013-11-10 17:56:00,78.3,69.3,30.00,NE,46,4.0,11.0,74,0.00,,,0.02,Wunderground v.1.15,2013-11-10 22:56:00,
2013-11-10 18:02:00,78.1,69.1,30.00,NE,56,4.0,11.0,74,0.00,,,0.02,Wunderground v.1.15,2013-11-10 23:02:00,
2013-11-10 18:08:00,78.1,69.1,30.00,ENE,58,3.0,11.0,74,0.00,,,0.02,Wunderground v.1.15,2013-11-10 23:08:00,
2013-11-10 18:14:00,77.9,68.9,30.00,ENE,68,3.0,11.0,74,0.00,,,0.02,Wunderground v.1.15,2013-11-10 23:14:00,
2013-11-10 18:20:00,78.0,69.0,30.00,NE,51,4.0,11.0,74,0.00,,,0.02,Wunderground v.1.15,2013-11-10 23:20:00,
2013-11-10 18:26:00,77.9,68.9,29.99,NE,56,4.0,11.0,74,0.00,,,0.02,Wunderground v.1.15,2013-11-10 23:26:00,
2013-11-10 18:32:00,77.8,69.2,29.99,NE,39,4.0,11.0,75,0.00,,,0.02,Wunderground v.1.15,2013-11-10 23:32:00,
2013-11-10 18:38:00,77.8,69.2,30.00,NNE,27,3.0,11.0,75,0.00,,,0.02,Wunderground v.1.15,2013-11-10 23:38:00,
2013-11-10 18:44:00,77.7,69.1,30.00,NE,41,3.0,11.0,75,0.00,,,0.02,Wunderground v.1.15,2013-11-10 23:44:00,
2013-11-10 18:50:00,77.6,69.0,30.00,NNE,25,3.0,11.0,75,0.00,,,0.02,Wunderground v.1.15,2013-11-10 23:50:00,
2013-11-10 18:56:00,77.5,69.3,30.00,North,1,3.0,11.0,76,0.00,,,0.02,Wunderground v.1.15,2013-11-10 23:56:00,
2013-11-10 19:02:00,77.5,69.3,30.01,NE,53,2.0,11.0,76,0.00,,,0.02,Wunderground v.1.15,2013-11-11 00:02:00,
2013-11-10 19:08:00,77.4,69.2,30.01,NE,44,2.0,11.0,76,0.00,,,0.02,Wunderground v.1.15,2013-11-11 00:08:00,
2013-11-10 19:14:00,77.2,69.4,30.01,ENE,58,1.0,11.0,77,0.00,,,0.02,Wunderground v.1.15,2013-11-11 00:14:00,
2013-11-10 19:20:00,77.1,69.3,30.01,ENE,59,2.0,2.0,77,0.00,,,0.02,Wunderground v.1.15,2013-11-11 00:20:00,
2013-11-10 19:26:00,77.0,69.2,30.01,NE,39,1.0,11.0,77,0.00,,,0.02,Wunderground v.1.15,2013-11-11 00:26:00,
2013-11-10 19:32:00,76.8,69.0,30.01,East,80,1.0,11.0,77,0.00,,,0.02,Wunderground v.1.15,2013-11-11 00:32:00,
2013-11-10 19:38:00,76.7,68.9,30.01,NE,50,1.0,11.0,77,0.00,,,0.02,Wunderground v.1.15,2013-11-11 00:38:00,
2013-11-10 19:44:00,76.6,69.2,30.01,ENE,58,1.0,11.0,78,0.00,,,0.02,Wunderground v.1.15,2013-11-11 00:44:00,
2013-11-10 19:50:00,76.4,69.0,30.01,NE,53,1.0,1.0,78,0.00,,,0.02,Wunderground v.1.15,2013-11-11 00:50:00,
2013-11-10 19:56:00,76.3,68.9,30.01,NE,52,0.0,11.0,78,0.00,,,0.02,Wunderground v.1.15,2013-11-11 00:56:00,
2013-11-10 20:02:00,76.2,68.8,30.01,NE,38,1.0,11.0,78,0.00,,,0.02,Wunderground v.1.15,2013-11-11 01:02:00,
2013-11-10 20:08:00,76.0,68.6,30.02,NE,49,1.0,11.0,78,0.00,,,0.02,Wunderground v.1.15,2013-11-11 01:08:00,
2013-11-10 20:14:00,75.9,68.5,30.02,NE,46,1.0,11.0,78,0.00,,,0.02,Wunderground v.1.15,2013-11-11 01:14:00,
2013-11-10 20:20:00,75.8,68.8,30.02,NNE,27,0.0,11.0,79,0.00,,,0.02,Wunderground v.1.15,2013-11-11 01:20:00,
2013-11-10 20:26:00,75.6,68.6,30.02,NNE,27,0.0,11.0,79,0.00,,,0.02,Wunderground v.1.15,2013-11-11 01:26:00,
2013-11-10 20:32:00,75.5,68.5,30.02,NE,35,0.0,11.0,79,0.00,,,0.02,Wunderground v.1.15,2013-11-11 01:32:00,
2013-11-10 20:38:00,75.5,68.5,30.02,NE,35,0.0,11.0,79,0.00,,,0.02,Wunderground v.1.15,2013-11-11 01:38:00,
2013-11-10 20:44:00,75.2,68.6,30.02,NNW,346,0.0,11.0,80,0.00,,,0.02,Wunderground v.1.15,2013-11-11 01:44:00,
2013-11-10 20:50:00,75.3,68.7,30.03,NNW,336,1.0,1.0,80,0.00,,,0.02,Wunderground v.1.15,2013-11-11 01:50:00,
2013-11-10 20:56:00,75.1,68.5,30.03,NNW,337,0.0,11.0,80,0.00,,,0.02,Wunderground v.1.15,2013-11-11 01:56:00,
2013-11-10 21:02:00,74.8,68.6,30.03,NNW,337,0.0,11.0,81,0.00,,,0.02,Wunderground v.1.15,2013-11-11 02:02:00,
2013-11-10 21:08:00,74.6,68.4,30.03,NNW,337,0.0,11.0,81,0.00,,,0.02,Wunderground v.1.15,2013-11-11 02:08:00,
2013-11-10 21:14:00,74.4,68.5,30.03,NE,38,0.0,11.0,82,0.00,,,0.02,Wunderground v.1.15,2013-11-11 02:14:00,
2013-11-10 21:20:00,74.2,68.3,30.03,NE,38,0.0,11.0,82,0.00,,,0.02,Wunderground v.1.15,2013-11-11 02:20:00,
2013-11-10 21:26:00,74.3,68.4,30.03,NNW,337,0.0,11.0,82,0.00,,,0.02,Wunderground v.1.15,2013-11-11 02:26:00,
2013-11-10 21:32:00,74.4,68.5,30.03,NNW,336,0.0,11.0,82,0.00,,,0.02,Wunderground v.1.15,2013-11-11 02:32:00,
2013-11-10 21:38:00,74.4,68.5,30.03,NNW,336,0.0,11.0,82,0.00,,,0.02,Wunderground v.1.15,2013-11-11 02:38:00,
2013-11-10 21:44:00,74.2,68.7,30.03,NNW,336,0.0,11.0,83,0.00,,,0.02,Wunderground v.1.15,2013-11-11 02:44:00,
2013-11-10 21:50:00,74.0,68.9,30.03,NNW,336,0.0,11.0,84,0.00,,,0.02,Wunderground v.1.15,2013-11-11 02:50:00,
2013-11-10 21:56:00,73.6,68.8,30.03,NNW,336,0.0,11.0,85,0.00,,,0.02,Wunderground v.1.15,2013-11-11 02:56:00,
2013-11-10 22:02:00,73.3,68.9,30.03,NNW,336,0.0,11.0,86,0.00,,,0.02,Wunderground v.1.15,2013-11-11 03:02:00,
2013-11-10 22:08:00,73.2,68.8,30.03,NNW,336,0.0,11.0,86,0.00,,,0.02,Wunderground v.1.15,2013-11-11 03:08:00,
2013-11-10 22:14:00,73.1,68.7,30.03,NNW,336,0.0,11.0,86,0.00,,,0.02,Wunderground v.1.15,2013-11-11 03:14:00,
2013-11-10 22:20:00,73.0,68.9,30.03,NNW,336,0.0,11.0,87,0.00,,,0.02,Wunderground v.1.15,2013-11-11 03:20:00,
2013-11-10 22:26:00,73.1,69.0,30.03,NNW,336,0.0,11.0,87,0.00,,,0.02,Wunderground v.1.15,2013-11-11 03:26:00,
2013-11-10 22:32:00,73.5,69.1,30.03,North,351,1.0,11.0,86,0.00,,,0.02,Wunderground v.1.15,2013-11-11 03:32:00,
2013-11-10 22:38:00,73.5,69.1,30.03,NNW,343,0.0,11.0,86,0.00,,,0.02,Wunderground v.1.15,2013-11-11 03:38:00,
2013-11-10 22:44:00,73.5,69.4,30.03,NNW,345,0.0,11.0,87,0.00,,,0.02,Wunderground v.1.15,2013-11-11 03:44:00,
2013-11-10 22:50:00,73.6,69.5,30.03,NNW,347,1.0,1.0,87,0.00,,,0.02,Wunderground v.1.15,2013-11-11 03:50:00,
2013-11-10 22:56:00,73.6,69.5,30.03,NNW,342,0.0,11.0,87,0.00,,,0.02,Wunderground v.1.15,2013-11-11 03:56:00,
2013-11-10 23:02:00,73.4,69.6,30.03,NNW,340,0.0,11.0,88,0.00,,,0.02,Wunderground v.1.15,2013-11-11 04:02:00,
2013-11-10 23:08:00,73.2,69.4,30.03,NNW,340,0.0,11.0,88,0.00,,,0.02,Wunderground v.1.15,2013-11-11 04:08:00,
2013-11-10 23:14:00,73.0,69.6,30.03,NNW,340,0.0,11.0,89,0.00,,,0.02,Wunderground v.1.15,2013-11-11 04:14:00,
2013-11-10 23:20:00,73.0,69.6,30.02,NNW,328,1.0,11.0,89,0.00,,,0.02,Wunderground v.1.15,2013-11-11 04:20:00,
2013-11-10 23:26:00,73.0,69.6,30.02,NNW,327,1.0,11.0,89,0.00,,,0.02,Wunderground v.1.15,2013-11-11 04:26:00,
2013-11-10 23:32:00,72.9,69.5,30.02,NNW,337,0.0,11.0,89,0.00,,,0.02,Wunderground v.1.15,2013-11-11 04:32:00,
2013-11-10 23:38:00,72.9,69.8,30.02,NNW,336,1.0,11.0,90,0.00,,,0.02,Wunderground v.1.15,2013-11-11 04:38:00,
2013-11-10 23:44:00,72.9,69.8,30.02,North,355,1.0,11.0,90,0.00,,,0.02,Wunderground v.1.15,2013-11-11 04:44:00,
2013-11-10 23:50:00,72.7,69.6,30.02,North,355,0.0,11.0,90,0.00,,,0.02,Wunderground v.1.15,2013-11-11 04:50:00,
2013-11-10 23:56:00,72.5,69.4,30.02,North,355,0.0,11.0,90,0.00,,,0.02,Wunderground v.1.15,2013-11-11 04:56:00,